,,Stat6,,Stat2,,Stat8,,Stat9,,Stat10,,Wind1,,Wind1
time,status,PA1M_AVG,status,PR1M_SUM,status,RH1M_AVG,status,SR1M_AVG,status,TA1M_AVG,status,W1dAve1m,status,W1sAve1m
2009-05-11, 00:00:00,VALID,916.144,VALID,0,VALID,97.3095,VALID,-0.0679233,VALID,21.6713,VALID,18,VALID,0.212984
2009-05-11, 00:01:00,VALID,916.138,VALID,0,VALID,97.2396,VALID,-0.0509425,VALID,21.6845,VALID,9,VALID,0
2009-05-11, 00:02:00,VALID,916.13,VALID,0,VALID,97.0908,VALID,-0.0509425,VALID,21.72,VALID,9,VALID,0
2009-05-11, 00:03:00,VALID,916.151,VALID,0,VALID,96.8746,VALID,-0.0679233,VALID,21.7692,VALID,9,VALID,0
2009-05-11, 00:04:00,VALID,916.163,VALID,0,VALID,96.6737,VALID,-0.0679233,VALID,21.763,VALID,11,VALID,0
2009-05-11, 00:05:00,VALID,916.172,VALID,0,VALID,96.6381,VALID,-0.0339617,VALID,21.7462,VALID,26,VALID,0
2009-05-11, 00:06:00,VALID,916.17,VALID,0,VALID,96.5669,VALID,-0.0509425,VALID,21.717,VALID,23,VALID,0
2009-05-11, 00:07:00,VALID,916.164,VALID,0,VALID,96.5504,VALID,-0.0679233,VALID,21.6842,VALID,35,VALID,0
2009-05-11, 00:08:00,VALID,916.173,VALID,0,VALID,96.558,VALID,-0.101885,VALID,21.6688,VALID,44,VALID,0
2009-05-11, 00:09:00,VALID,916.167,VALID,0,VALID,96.6954,VALID,0.0169808,VALID,21.6404,VALID,8,VALID,0.225632
2009-05-11, 00:10:00,VALID,916.148,VALID,0,VALID,96.6407,VALID,0.0169808,VALID,21.6209,VALID,36,VALID,0.117914
2009-05-11, 00:11:00,VALID,916.132,VALID,0,VALID,96.6763,VALID,0.0169808,VALID,21.5917,VALID,26,VALID,0
2009-05-11, 00:12:00,VALID,916.102,VALID,0,VALID,96.8378,VALID,0.0169808,VALID,21.5752,VALID,357,VALID,0
2009-05-11, 00:13:00,VALID,916.079,VALID,0,VALID,96.9535,VALID,0.0339617,VALID,21.5722,VALID,346,VALID,0
2009-05-11, 00:14:00,VALID,916.052,VALID,0,VALID,97.0349,VALID,0.0339617,VALID,21.5622,VALID,346,VALID,0
2009-05-11, 00:15:00,VALID,916.021,VALID,0,VALID,97.0094,VALID,0.0169808,VALID,21.5592,VALID,321,VALID,0
2009-05-11, 00:16:00,VALID,915.993,VALID,0,VALID,97.1468,VALID,0.0509425,VALID,21.546,VALID,307,VALID,0
2009-05-11, 00:17:00,VALID,915.978,VALID,0,VALID,97.2523,VALID,0.0169808,VALID,21.5427,VALID,307,VALID,0
2009-05-11, 00:18:00,VALID,915.967,VALID,0,VALID,97.19,VALID,0.0849042,VALID,21.507,VALID,307,VALID,0
2009-05-11, 00:19:00,VALID,915.959,VALID,0,VALID,97.0018,VALID,0.0169808,VALID,21.4453,VALID,307,VALID,0
2009-05-11, 00:20:00,VALID,915.959,VALID,0,VALID,97.1226,VALID,0.0849042,VALID,21.3837,VALID,307,VALID,0
2009-05-11, 00:21:00,VALID,915.953,VALID,0,VALID,97.513,VALID,0.0339617,VALID,21.3544,VALID,307,VALID,0
2009-05-11, 00:22:00,VALID,915.948,VALID,0,VALID,97.8678,VALID,0.0849042,VALID,21.3509,VALID,307,VALID,0
2009-05-11, 00:23:00,VALID,915.935,VALID,0,VALID,97.9466,VALID,0.101885,VALID,21.3187,VALID,307,VALID,0
2009-05-11, 00:24:00,VALID,915.897,VALID,0,VALID,98.1246,VALID,-0.0339617,VALID,21.3201,VALID,307,VALID,0
2009-05-11, 00:25:00,VALID,915.846,VALID,0,VALID,98.3039,VALID,-0.0849042,VALID,21.3074,VALID,307,VALID,0
2009-05-11, 00:26:00,VALID,915.794,VALID,0,VALID,98.4743,VALID,-0.0509425,VALID,21.3068,VALID,307,VALID,0
2009-05-11, 00:27:00,VALID,915.724,VALID,0,VALID,98.6371,VALID,-0.0339617,VALID,21.3071,VALID,307,VALID,0
2009-05-11, 00:28:00,VALID,915.658,VALID,0,VALID,98.6524,VALID,-0.0679233,VALID,21.3009,VALID,307,VALID,0
2009-05-11, 00:29:00,VALID,915.618,VALID,0,VALID,98.59,VALID,-0.0679233,VALID,21.2649,VALID,307,VALID,0
2009-05-11, 00:30:00,VALID,915.605,VALID,0,VALID,98.5036,VALID,-0.0679233,VALID,21.2327,VALID,307,VALID,0
2009-05-11, 00:31:00,VALID,915.621,VALID,0,VALID,98.5519,VALID,-0.0509425,VALID,21.184,VALID,307,VALID,0
2009-05-11, 00:32:00,VALID,915.618,VALID,0,VALID,98.646,VALID,-0.0679233,VALID,21.1678,VALID,307,VALID,0
2009-05-11, 00:33:00,VALID,915.602,VALID,0,VALID,98.468,VALID,-0.0679233,VALID,21.135,VALID,307,VALID,0
2009-05-11, 00:34:00,VALID,915.573,VALID,0,VALID,98.5659,VALID,-0.0679233,VALID,21.0896,VALID,307,VALID,0
2009-05-11, 00:35:00,VALID,915.525,VALID,0,VALID,98.4133,VALID,-0.0849042,VALID,21.0544,VALID,307,VALID,0
2009-05-11, 00:36:00,VALID,915.463,VALID,0,VALID,98.6905,VALID,-0.0509425,VALID,20.9598,VALID,43,VALID,0
2009-05-11, 00:37:00,VALID,915.424,VALID,0,VALID,98.7897,VALID,-0.0679233,VALID,20.8821,VALID,54,VALID,0
2009-05-11, 00:38:00,VALID,915.393,VALID,0,VALID,99.4547,VALID,-0.0509425,VALID,20.8367,VALID,62,VALID,0.0724609
2009-05-11, 00:39:00,VALID,915.373,VALID,0,VALID,99.648,VALID,-0.0849042,VALID,20.7845,VALID,63,VALID,0
2009-05-11, 00:40:00,VALID,915.34,VALID,0,VALID,99.984,VALID,-0.0679233,VALID,20.788,VALID,54,VALID,0
2009-05-11, 00:41:00,VALID,915.331,VALID,0,VALID,100,VALID,-0.0169808,VALID,20.8102,VALID,60,VALID,0
2009-05-11, 00:42:00,VALID,915.333,VALID,0,VALID,100,VALID,-0.0339617,VALID,20.8297,VALID,61,VALID,0.0853659
2009-05-11, 00:43:00,VALID,915.328,VALID,0,VALID,100,VALID,-0.0679233,VALID,20.8497,VALID,59,VALID,0
2009-05-11, 00:44:00,VALID,915.328,VALID,0,VALID,99.7637,VALID,-0.0509425,VALID,20.7812,VALID,55,VALID,0
2009-05-11, 00:45:00,VALID,915.317,VALID,0,VALID,99.9738,VALID,-0.0679233,VALID,20.7458,VALID,51,VALID,0
2009-05-11, 00:46:00,VALID,915.303,VALID,0,VALID,100,VALID,-0.0339617,VALID,20.729,VALID,51,VALID,0
2009-05-11, 00:47:00,VALID,915.288,VALID,0,VALID,100,VALID,-0.0509425,VALID,20.7163,VALID,51,VALID,0
2009-05-11, 00:48:00,VALID,915.259,VALID,0,VALID,100,VALID,-0.0169808,VALID,20.719,VALID,51,VALID,0
2009-05-11, 00:49:00,VALID,915.224,VALID,0,VALID,100,VALID,-0.0509425,VALID,20.7293,VALID,61,VALID,0.011814
2009-05-11, 00:50:00,VALID,915.191,VALID,0,VALID,100,VALID,-0.0339617,VALID,20.7028,VALID,116,VALID,0.0284091
2009-05-11, 00:51:00,VALID,915.159,VALID,0,VALID,100,VALID,-0.0509425,VALID,20.6901,VALID,118,VALID,0
2009-05-11, 00:52:00,VALID,915.158,VALID,0,VALID,99.9552,VALID,-0.101885,VALID,20.6192,VALID,120,VALID,0.00106534
2009-05-11, 00:53:00,VALID,915.154,VALID,0,VALID,100,VALID,-0.0339617,VALID,20.5538,VALID,126,VALID,0
2009-05-11, 00:54:00,VALID,915.128,VALID,0,VALID,100,VALID,0.0339617,VALID,20.507,VALID,128,VALID,0
2009-05-11, 00:55:00,VALID,915.108,VALID,0,VALID,100,VALID,0.0679233,VALID,20.4676,VALID,148,VALID,0.00120192
2009-05-11, 00:56:00,VALID,915.065,VALID,0,VALID,100,VALID,0,VALID,20.4516,VALID,148,VALID,0
2009-05-11, 00:57:00,VALID,915.041,VALID,0,VALID,100,VALID,0.0509425,VALID,20.4421,VALID,148,VALID,0
2009-05-11, 00:58:00,VALID,915.026,VALID,0,VALID,100,VALID,0.0849042,VALID,20.4384,VALID,148,VALID,0
2009-05-11, 00:59:00,VALID,915.031,VALID,0,VALID,100,VALID,0.0679233,VALID,20.4286,VALID,137,VALID,0
2009-05-11, 01:00:00,VALID,915.005,VALID,0,VALID,100,VALID,0.0339617,VALID,20.3318,VALID,129,VALID,0
2009-05-11, 01:01:00,VALID,914.995,VALID,0,VALID,100,VALID,0.0679233,VALID,20.3028,VALID,129,VALID,0
2009-05-11, 01:02:01,VALID,914.983,VALID,0,VALID,100,VALID,0.0509425,VALID,20.2891,VALID,129,VALID,0
2009-05-11, 01:03:00,VALID,914.959,VALID,0,VALID,100,VALID,0.0509425,VALID,20.2899,VALID,125,VALID,0
2009-05-11, 01:04:00,VALID,914.923,VALID,0,VALID,100,VALID,0.0509425,VALID,20.3378,VALID,111,VALID,0
2009-05-11, 01:05:00,VALID,914.883,VALID,0,VALID,100,VALID,0.101885,VALID,20.4514,VALID,95,VALID,0
2009-05-11, 01:06:00,VALID,914.838,VALID,0,VALID,100,VALID,0.101885,VALID,20.5455,VALID,85,VALID,0
2009-05-11, 01:07:00,VALID,914.791,VALID,0,VALID,100,VALID,0.101885,VALID,20.5966,VALID,88,VALID,0
2009-05-11, 01:08:00,VALID,914.763,VALID,0,VALID,100,VALID,0.0849042,VALID,20.6748,VALID,90,VALID,0
2009-05-11, 01:09:00,VALID,914.738,VALID,0,VALID,100,VALID,-0.0339617,VALID,20.7118,VALID,95,VALID,0
2009-05-11, 01:10:00,VALID,914.714,VALID,0,VALID,100,VALID,-0.0509425,VALID,20.7618,VALID,98,VALID,0
2009-05-11, 01:11:00,VALID,914.693,VALID,0,VALID,100,VALID,-0.0339617,VALID,20.7198,VALID,118,VALID,0
2009-05-11, 01:12:00,VALID,914.681,VALID,0,VALID,100,VALID,-0.0339617,VALID,20.6906,VALID,118,VALID,0
2009-05-11, 01:13:00,VALID,914.649,VALID,0,VALID,100,VALID,-0.0849042,VALID,20.6382,VALID,117,VALID,0
2009-05-11, 01:14:00,VALID,914.624,VALID,0,VALID,100,VALID,-0.0849042,VALID,20.6095,VALID,119,VALID,0
2009-05-11, 01:15:00,VALID,914.605,VALID,0,VALID,100,VALID,0,VALID,20.5703,VALID,120,VALID,0
2009-05-11, 01:16:00,VALID,914.596,VALID,0,VALID,100,VALID,-0.101885,VALID,20.4761,VALID,135,VALID,0
2009-05-11, 01:17:00,VALID,914.594,VALID,0,VALID,100,VALID,-0.0339617,VALID,20.4112,VALID,145,VALID,0
2009-05-11, 01:18:01,VALID,914.592,VALID,0,VALID,100,VALID,-0.0509425,VALID,20.3171,VALID,153,VALID,0.00223214
2009-05-11, 01:19:00,VALID,914.565,VALID,0,VALID,100,VALID,-0.0339617,VALID,20.2422,VALID,156,VALID,0
2009-05-11, 01:20:00,VALID,914.578,VALID,0,VALID,100,VALID,-0.0169808,VALID,20.1998,VALID,159,VALID,0
2009-05-11, 01:21:00,VALID,914.552,VALID,0,VALID,100,VALID,-0.0339617,VALID,20.2033,VALID,148,VALID,0.100675
2009-05-11, 01:22:00,VALID,914.532,VALID,0,VALID,100,VALID,-0.0339617,VALID,20.2028,VALID,146,VALID,0
2009-05-11, 01:23:00,VALID,914.494,VALID,0,VALID,100,VALID,-0.0169808,VALID,20.1828,VALID,133,VALID,0.0012718
2009-05-11, 01:24:00,VALID,914.459,VALID,0,VALID,100,VALID,-0.0339617,VALID,20.1736,VALID,130,VALID,0.0978423
2009-05-11, 01:25:01,VALID,914.423,VALID,0,VALID,100,VALID,-0.0169808,VALID,20.1771,VALID,129,VALID,0.0779345
2009-05-11, 01:26:00,VALID,914.395,VALID,0,VALID,100,VALID,-0.0169808,VALID,20.1376,VALID,128,VALID,0.0259046
2009-05-11, 01:27:00,VALID,914.376,VALID,0,VALID,100,VALID,-0.0169808,VALID,20.1346,VALID,128,VALID,0
2009-05-11, 01:28:00,VALID,914.368,VALID,0,VALID,100,VALID,-0.0169808,VALID,20.1406,VALID,128,VALID,0
2009-05-11, 01:29:00,VALID,914.378,VALID,0,VALID,100,VALID,-0.0339617,VALID,20.1449,VALID,129,VALID,0
2009-05-11, 01:30:01,VALID,914.391,VALID,0,VALID,100,VALID,-0.0339617,VALID,20.1316,VALID,135,VALID,0
2009-05-11, 01:31:00,VALID,914.397,VALID,0,VALID,100,VALID,-0.0679233,VALID,20.1256,VALID,148,VALID,0.0411086
2009-05-11, 01:32:00,VALID,914.413,VALID,0,VALID,100,VALID,-0.0169808,VALID,20.1151,VALID,152,VALID,0
2009-05-11, 01:33:00,VALID,914.395,VALID,0,VALID,100,VALID,-0.0169808,VALID,20.0992,VALID,144,VALID,0
2009-05-11, 01:34:01,VALID,914.402,VALID,0,VALID,100,VALID,-0.0339617,VALID,20.0827,VALID,144,VALID,0
2009-05-11, 01:35:01,VALID,914.398,VALID,0,VALID,100,VALID,0,VALID,20.0829,VALID,148,VALID,0
2009-05-11, 01:36:01,VALID,914.398,VALID,0,VALID,100,VALID,0,VALID,20.0765,VALID,145,VALID,0
2009-05-11, 01:37:00,VALID,914.381,VALID,0,VALID,100,VALID,-0.0169808,VALID,20.0827,VALID,158,VALID,0
2009-05-11, 01:38:00,VALID,914.39,VALID,0,VALID,100,VALID,-0.0169808,VALID,20.1119,VALID,163,VALID,0
2009-05-11, 01:39:01,VALID,914.378,VALID,0,VALID,100,VALID,-0.0169808,VALID,20.1214,VALID,164,VALID,0.473704
2009-05-11, 01:40:00,VALID,914.379,VALID,0,VALID,100,VALID,-0.0169808,VALID,20.1281,VALID,157,VALID,0.193132
2009-05-11, 01:41:00,VALID,914.361,VALID,0,VALID,100,VALID,-0.0509425,VALID,20.1643,VALID,151,VALID,0.128162
2009-05-11, 01:42:01,VALID,914.367,VALID,0,VALID,100,VALID,0,VALID,20.1568,VALID,156,VALID,0.0834604
2009-05-11, 01:43:01,VALID,914.36,VALID,0,VALID,100,VALID,-0.0169808,VALID,20.193,VALID,164,VALID,0
2009-05-11, 01:44:00,VALID,914.335,VALID,0,VALID,100,VALID,-0.0169808,VALID,20.1928,VALID,158,VALID,0
2009-05-11, 01:45:01,VALID,914.291,VALID,0,VALID,100,VALID,-0.0509425,VALID,20.216,VALID,157,VALID,0
2009-05-11, 01:46:00,VALID,914.266,VALID,0,VALID,100,VALID,-0.0679233,VALID,20.2187,VALID,145,VALID,0
2009-05-11, 01:47:01,VALID,914.241,VALID,0,VALID,100,VALID,-0.0339617,VALID,20.2222,VALID,158,VALID,0
2009-05-11, 01:48:00,VALID,914.248,VALID,0,VALID,100,VALID,-0.0169808,VALID,20.2093,VALID,167,VALID,0
2009-05-11, 01:49:01,VALID,914.227,VALID,0,VALID,100,VALID,-0.0339617,VALID,20.1995,VALID,160,VALID,0.179116
2009-05-11, 01:50:01,VALID,914.206,VALID,0,VALID,100,VALID,-0.0339617,VALID,20.2155,VALID,159,VALID,0.0949929
2009-05-11, 01:51:01,VALID,914.182,VALID,0,VALID,100,VALID,-0.0849042,VALID,20.2382,VALID,165,VALID,0.25327
2009-05-11, 01:52:01,VALID,914.174,VALID,0,VALID,100,VALID,-0.0339617,VALID,20.2712,VALID,159,VALID,0.143973
2009-05-11, 01:53:00,VALID,914.168,VALID,0,VALID,100,VALID,-0.0169808,VALID,20.2707,VALID,163,VALID,0.0583212
2009-05-11, 01:54:00,VALID,914.162,VALID,0,VALID,100,VALID,-0.0339617,VALID,20.2804,VALID,178,VALID,0.179487
2009-05-11, 01:55:00,VALID,914.177,VALID,0,VALID,100,VALID,-0.0169808,VALID,20.2931,VALID,159,VALID,0.0704942
2009-05-11, 01:56:01,VALID,914.174,VALID,0,VALID,100,VALID,0,VALID,20.2934,VALID,158,VALID,0
2009-05-11, 01:57:01,VALID,914.147,VALID,0,VALID,100,VALID,0,VALID,20.2609,VALID,138,VALID,0.000169837
2009-05-11, 01:58:01,VALID,914.113,VALID,0,VALID,100,VALID,-0.0509425,VALID,20.2385,VALID,117,VALID,0.0448289
2009-05-11, 01:59:01,VALID,914.058,VALID,0,VALID,100,VALID,-0.0509425,VALID,20.219,VALID,108,VALID,0
2009-05-11, 02:00:01,VALID,914.011,VALID,0,VALID,100,VALID,0,VALID,20.1888,VALID,108,VALID,0
2009-05-11, 02:01:01,VALID,913.972,VALID,0,VALID,100,VALID,-0.0169808,VALID,20.1698,VALID,114,VALID,0.217634
2009-05-11, 02:02:01,VALID,913.977,VALID,0,VALID,100,VALID,-0.0169808,VALID,20.1441,VALID,119,VALID,0.00133384
2009-05-11, 02:03:00,VALID,913.977,VALID,0,VALID,100,VALID,-0.0339617,VALID,20.1276,VALID,124,VALID,0.0805432
2009-05-11, 02:04:00,VALID,913.958,VALID,0,VALID,100,VALID,-0.0509425,VALID,20.1246,VALID,124,VALID,0.259448
2009-05-11, 02:05:00,VALID,913.943,VALID,0,VALID,100,VALID,-0.0339617,VALID,20.1603,VALID,130,VALID,0.422805
2009-05-11, 02:06:00,VALID,913.935,VALID,0,VALID,100,VALID,-0.0169808,VALID,20.1695,VALID,125,VALID,0.534299
2009-05-11, 02:07:00,VALID,913.93,VALID,0,VALID,100,VALID,0,VALID,20.1728,VALID,128,VALID,0.718359
2009-05-11, 02:08:00,VALID,913.921,VALID,0,VALID,100,VALID,-0.0679233,VALID,20.1663,VALID,121,VALID,0.0693824
2009-05-11, 02:09:00,VALID,913.92,VALID,0,VALID,100,VALID,-0.0679233,VALID,20.1606,VALID,142,VALID,0
2009-05-11, 02:10:00,VALID,913.895,VALID,0,VALID,100,VALID,-0.0679233,VALID,20.1374,VALID,131,VALID,0
2009-05-11, 02:11:00,VALID,913.851,VALID,0,VALID,100,VALID,0,VALID,20.1341,VALID,142,VALID,0
2009-05-11, 02:12:00,VALID,913.786,VALID,0,VALID,100,VALID,-0.0169808,VALID,20.0982,VALID,146,VALID,0
2009-05-11, 02:13:00,VALID,913.742,VALID,0,VALID,100,VALID,0,VALID,20.0722,VALID,127,VALID,0
2009-05-11, 02:14:00,VALID,913.744,VALID,0,VALID,100,VALID,-0.0169808,VALID,20.056,VALID,121,VALID,0
2009-05-11, 02:15:00,VALID,913.766,VALID,0,VALID,100,VALID,0,VALID,20.053,VALID,126,VALID,0
2009-05-11, 02:16:00,VALID,913.779,VALID,0,VALID,100,VALID,-0.0339617,VALID,20.0335,VALID,126,VALID,0
2009-05-11, 02:17:00,VALID,913.802,VALID,0,VALID,100,VALID,-0.0169808,VALID,20.027,VALID,130,VALID,0
2009-05-11, 02:18:00,VALID,913.796,VALID,0,VALID,100,VALID,-0.0509425,VALID,20.0108,VALID,146,VALID,0
2009-05-11, 02:19:00,VALID,913.791,VALID,0,VALID,100,VALID,-0.0169808,VALID,20.0108,VALID,159,VALID,0.359189
2009-05-11, 02:20:00,VALID,913.785,VALID,0,VALID,100,VALID,0,VALID,20.0103,VALID,159,VALID,0.410511
2009-05-11, 02:21:00,VALID,913.792,VALID,0,VALID,100,VALID,0,VALID,20.03,VALID,146,VALID,0.168341
2009-05-11, 02:22:00,VALID,913.818,VALID,0,VALID,100,VALID,-0.0339617,VALID,20.0432,VALID,155,VALID,0.00223214
2009-05-11, 02:23:00,VALID,913.848,VALID,0,VALID,100,VALID,0.0339617,VALID,20.0108,VALID,144,VALID,0
2009-05-11, 02:24:00,VALID,913.857,VALID,0,VALID,100,VALID,0,VALID,20.0013,VALID,145,VALID,0
2009-05-11, 02:25:00,VALID,913.84,VALID,0,VALID,100,VALID,-0.0339617,VALID,19.9913,VALID,142,VALID,0
2009-05-11, 02:26:00,VALID,913.813,VALID,0,VALID,100,VALID,-0.0509425,VALID,19.9978,VALID,149,VALID,0
2009-05-11, 02:27:00,VALID,913.774,VALID,0,VALID,100,VALID,-0.0339617,VALID,19.9978,VALID,137,VALID,0
2009-05-11, 02:28:00,VALID,913.74,VALID,0,VALID,100,VALID,-0.0339617,VALID,20.0076,VALID,133,VALID,0.18285
2009-05-11, 02:29:00,VALID,913.716,VALID,0,VALID,100,VALID,0,VALID,20.014,VALID,131,VALID,0
2009-05-11, 02:30:00,VALID,913.719,VALID,0,VALID,100,VALID,-0.0509425,VALID,20.0238,VALID,137,VALID,0
2009-05-11, 02:31:00,VALID,913.706,VALID,0,VALID,100,VALID,-0.0509425,VALID,20.0205,VALID,141,VALID,0
2009-05-11, 02:32:00,VALID,913.697,VALID,0,VALID,100,VALID,-0.0169808,VALID,20.024,VALID,145,VALID,0
2009-05-11, 02:33:00,VALID,913.697,VALID,0,VALID,100,VALID,-0.0339617,VALID,20.0397,VALID,143,VALID,0
2009-05-11, 02:34:00,VALID,913.698,VALID,0,VALID,100,VALID,-0.0169808,VALID,20.0562,VALID,141,VALID,0
2009-05-11, 02:35:00,VALID,913.718,VALID,0,VALID,100,VALID,-0.0169808,VALID,20.0725,VALID,137,VALID,0
2009-05-11, 02:36:00,VALID,913.725,VALID,0,VALID,100,VALID,-0.0339617,VALID,20.0725,VALID,140,VALID,0
2009-05-11, 02:37:00,VALID,913.747,VALID,0,VALID,100,VALID,-0.0169808,VALID,20.0817,VALID,135,VALID,0
2009-05-11, 02:38:00,VALID,913.747,VALID,0,VALID,100,VALID,-0.0339617,VALID,20.0919,VALID,128,VALID,0
2009-05-11, 02:39:00,VALID,913.724,VALID,0,VALID,100,VALID,0,VALID,20.0984,VALID,124,VALID,0
2009-05-11, 02:40:00,VALID,913.713,VALID,0,VALID,100,VALID,-0.0169808,VALID,20.1014,VALID,123,VALID,0
2009-05-11, 02:41:00,VALID,913.691,VALID,0,VALID,100,VALID,0,VALID,20.1079,VALID,130,VALID,0
2009-05-11, 02:42:00,VALID,913.691,VALID,0,VALID,100,VALID,-0.0169808,VALID,20.0854,VALID,134,VALID,0
2009-05-11, 02:43:00,VALID,913.665,VALID,0,VALID,100,VALID,-0.0169808,VALID,20.0757,VALID,131,VALID,0
2009-05-11, 02:44:00,VALID,913.671,VALID,0,VALID,100,VALID,-0.0169808,VALID,20.0562,VALID,133,VALID,0
2009-05-11, 02:45:00,VALID,913.662,VALID,0,VALID,100,VALID,-0.0339617,VALID,20.0368,VALID,145,VALID,0
2009-05-11, 02:46:00,VALID,913.657,VALID,0,VALID,100,VALID,0,VALID,20.0203,VALID,146,VALID,0
2009-05-11, 02:47:00,VALID,913.662,VALID,0,VALID,100,VALID,-0.0169808,VALID,20.0335,VALID,149,VALID,0
2009-05-11, 02:48:00,VALID,913.642,VALID,0,VALID,100,VALID,-0.0339617,VALID,20.0562,VALID,146,VALID,0
2009-05-11, 02:49:00,VALID,913.606,VALID,0,VALID,100,VALID,-0.0509425,VALID,20.0627,VALID,140,VALID,0
2009-05-11, 02:50:00,VALID,913.567,VALID,0,VALID,100,VALID,-0.0509425,VALID,20.0657,VALID,133,VALID,0
2009-05-11, 02:51:00,VALID,913.533,VALID,0,VALID,100,VALID,-0.0169808,VALID,20.0789,VALID,121,VALID,0
2009-05-11, 02:52:00,VALID,913.507,VALID,0,VALID,100,VALID,0,VALID,20.0789,VALID,120,VALID,0
2009-05-11, 02:53:00,VALID,913.474,VALID,0,VALID,100,VALID,-0.0169808,VALID,20.0822,VALID,115,VALID,0
2009-05-11, 02:54:00,VALID,913.431,VALID,0,VALID,100,VALID,-0.0679233,VALID,20.0535,VALID,104,VALID,0
2009-05-11, 02:55:00,VALID,913.409,VALID,0,VALID,100,VALID,-0.0339617,VALID,19.9624,VALID,68,VALID,0
2009-05-11, 02:56:00,VALID,913.381,VALID,0,VALID,100,VALID,-0.0169808,VALID,19.9007,VALID,64,VALID,0
2009-05-11, 02:57:00,VALID,913.349,VALID,0,VALID,100,VALID,-0.0169808,VALID,19.9429,VALID,91,VALID,0.084484
2009-05-11, 02:58:00,VALID,913.335,VALID,0,VALID,100,VALID,-0.0169808,VALID,19.9816,VALID,105,VALID,0
2009-05-11, 02:59:00,VALID,913.317,VALID,0,VALID,100,VALID,-0.0509425,VALID,19.9716,VALID,112,VALID,0
2009-05-11, 03:00:00,VALID,913.315,VALID,0,VALID,100,VALID,0,VALID,19.9751,VALID,107,VALID,0
2009-05-11, 03:01:00,VALID,913.324,VALID,0,VALID,100,VALID,-0.0169808,VALID,19.9719,VALID,107,VALID,0
2009-05-11, 03:02:00,VALID,913.313,VALID,0,VALID,100,VALID,-0.0169808,VALID,19.9581,VALID,109,VALID,0
2009-05-11, 03:03:00,VALID,913.332,VALID,0,VALID,100,VALID,0,VALID,19.9621,VALID,128,VALID,0
2009-05-11, 03:04:00,VALID,913.358,VALID,0,VALID,100,VALID,-0.0339617,VALID,19.9621,VALID,143,VALID,0
2009-05-11, 03:05:00,VALID,913.374,VALID,0,VALID,100,VALID,-0.0509425,VALID,19.9464,VALID,168,VALID,0
2009-05-11, 03:06:00,VALID,913.378,VALID,0,VALID,100,VALID,-0.0169808,VALID,19.9329,VALID,173,VALID,0
2009-05-11, 03:07:00,VALID,913.366,VALID,0,VALID,100,VALID,-0.0169808,VALID,19.9229,VALID,173,VALID,0
2009-05-11, 03:08:00,VALID,913.349,VALID,0,VALID,100,VALID,-0.0509425,VALID,19.9434,VALID,172,VALID,0
2009-05-11, 03:09:00,VALID,913.326,VALID,0,VALID,100,VALID,-0.0509425,VALID,19.9524,VALID,159,VALID,0
2009-05-11, 03:10:00,VALID,913.313,VALID,0,VALID,100,VALID,-0.0509425,VALID,19.9564,VALID,151,VALID,0
2009-05-11, 03:11:00,VALID,913.278,VALID,0,VALID,100,VALID,-0.0849042,VALID,19.9397,VALID,151,VALID,0
2009-05-11, 03:12:00,VALID,913.276,VALID,0,VALID,100,VALID,-0.0339617,VALID,19.9135,VALID,150,VALID,0
2009-05-11, 03:13:00,VALID,913.248,VALID,0,VALID,100,VALID,-0.0509425,VALID,19.8845,VALID,146,VALID,0
2009-05-11, 03:14:00,VALID,913.262,VALID,0,VALID,100,VALID,-0.0679233,VALID,19.8615,VALID,151,VALID,0
2009-05-11, 03:15:00,VALID,913.261,VALID,0,VALID,100,VALID,-0.0339617,VALID,19.8588,VALID,138,VALID,0
2009-05-11, 03:16:00,VALID,913.287,VALID,0,VALID,100,VALID,-0.0169808,VALID,19.8361,VALID,146,VALID,0
2009-05-11, 03:17:00,VALID,913.318,VALID,0,VALID,100,VALID,-0.0509425,VALID,19.8229,VALID,146,VALID,0
2009-05-11, 03:18:00,VALID,913.33,VALID,0,VALID,100,VALID,-0.0679233,VALID,19.7936,VALID,146,VALID,0
2009-05-11, 03:19:00,VALID,913.355,VALID,0,VALID,100,VALID,-0.0339617,VALID,19.7839,VALID,146,VALID,0
2009-05-11, 03:20:00,VALID,913.365,VALID,0,VALID,100,VALID,-0.0509425,VALID,19.7934,VALID,146,VALID,0
2009-05-11, 03:21:00,VALID,913.389,VALID,0,VALID,100,VALID,-0.0169808,VALID,19.7966,VALID,146,VALID,0
2009-05-11, 03:22:00,VALID,913.435,VALID,0,VALID,100,VALID,-0.0849042,VALID,19.7644,VALID,146,VALID,0
2009-05-11, 03:23:00,VALID,913.458,VALID,0,VALID,100,VALID,-0.0509425,VALID,19.7158,VALID,146,VALID,0
2009-05-11, 03:24:00,VALID,913.484,VALID,0,VALID,100,VALID,-0.0339617,VALID,19.706,VALID,146,VALID,0
2009-05-11, 03:25:00,VALID,913.511,VALID,0,VALID,100,VALID,0,VALID,19.6831,VALID,146,VALID,0
2009-05-11, 03:26:00,VALID,913.527,VALID,0,VALID,100,VALID,-0.0339617,VALID,19.6539,VALID,146,VALID,0
2009-05-11, 03:27:00,VALID,913.551,VALID,0,VALID,100,VALID,-0.0339617,VALID,19.6377,VALID,146,VALID,0
2009-05-11, 03:28:00,VALID,913.579,VALID,0,VALID,100,VALID,-0.0509425,VALID,19.6347,VALID,146,VALID,0
2009-05-11, 03:29:00,VALID,913.613,VALID,0,VALID,100,VALID,-0.0509425,VALID,19.5827,VALID,146,VALID,0
2009-05-11, 03:30:00,VALID,913.629,VALID,0,VALID,100,VALID,-0.0169808,VALID,19.5568,VALID,146,VALID,0
2009-05-11, 03:31:00,VALID,913.655,VALID,0,VALID,100,VALID,-0.101885,VALID,19.5338,VALID,146,VALID,0
2009-05-11, 03:32:00,VALID,913.673,VALID,0,VALID,100,VALID,-0.0849042,VALID,19.4757,VALID,146,VALID,0
2009-05-11, 03:33:00,VALID,913.685,VALID,0,VALID,100,VALID,-0.0849042,VALID,19.5218,VALID,134,VALID,0
2009-05-11, 03:34:00,VALID,913.702,VALID,0,VALID,100,VALID,-0.0849042,VALID,19.5668,VALID,101,VALID,0
2009-05-11, 03:35:00,VALID,913.693,VALID,0,VALID,100,VALID,-0.0509425,VALID,19.6511,VALID,101,VALID,0
2009-05-11, 03:36:00,VALID,913.704,VALID,0,VALID,100,VALID,0,VALID,19.7125,VALID,100,VALID,0
2009-05-11, 03:37:00,VALID,913.719,VALID,0,VALID,100,VALID,-0.0339617,VALID,19.7447,VALID,99,VALID,0
2009-05-11, 03:38:00,VALID,913.723,VALID,0,VALID,100,VALID,-0.0509425,VALID,19.7777,VALID,97,VALID,0
2009-05-11, 03:39:00,VALID,913.748,VALID,0,VALID,100,VALID,-0.0339617,VALID,19.7867,VALID,96,VALID,0
2009-05-11, 03:40:00,VALID,913.746,VALID,0,VALID,100,VALID,-0.0339617,VALID,19.8066,VALID,94,VALID,0
2009-05-11, 03:41:00,VALID,913.758,VALID,0,VALID,100,VALID,-0.0509425,VALID,19.8131,VALID,94,VALID,0
2009-05-11, 03:42:00,VALID,913.744,VALID,0,VALID,100,VALID,-0.0169808,VALID,19.7804,VALID,94,VALID,0
2009-05-11, 03:43:00,VALID,913.72,VALID,0,VALID,100,VALID,-0.0339617,VALID,19.761,VALID,94,VALID,0
2009-05-11, 03:44:00,VALID,913.703,VALID,0,VALID,100,VALID,0.0679233,VALID,19.7757,VALID,94,VALID,0
2009-05-11, 03:45:00,VALID,913.691,VALID,0,VALID,100,VALID,0,VALID,19.7984,VALID,94,VALID,0
2009-05-11, 03:46:00,VALID,913.703,VALID,0,VALID,100,VALID,0.0679233,VALID,19.8246,VALID,94,VALID,0
2009-05-11, 03:47:00,VALID,913.701,VALID,0,VALID,100,VALID,0.0339617,VALID,19.8373,VALID,94,VALID,0
2009-05-11, 03:48:00,VALID,913.683,VALID,0,VALID,100,VALID,0.0339617,VALID,19.8049,VALID,94,VALID,0
2009-05-11, 03:49:00,VALID,913.681,VALID,0,VALID,100,VALID,0.0509425,VALID,19.7627,VALID,94,VALID,0